DW2363 Weather Reports


time (UTC)temp
F
wind
direction
speed
knots
gust
knots
rain 1hr
in
rain 24hr
in
rain mn
in
humidity
%
barometer
mb
20260831005344 78 238 5.2 7.0 0.00 0.00 0.00 56 1012.4
20260831004848 78 229 4.3 6.1 0.00 0.00 0.00 58 1012.4
20260831004844 78 234 4.3 7.0 0.00 0.00 0.00 58 1012.5
20260831003849 79 227 4.3 7.0 0.00 0.00 0.00 52 1012.4
20260831003844 79 232 4.3 7.0 0.00 0.00 0.00 57 1012.5
20260831002844 80 252 5.2 7.0 0.00 0.00 0.00 51 1012.5
20260831002344 79 223 5.2 7.0 0.00 0.00 0.00 49 1012.5
20260831001845 78 205 5.2 7.0 0.00 0.00 0.00 51 1012.5
20260831001344 78 223 4.3 7.0 0.00 0.00 0.00 55 1012.4
20260831000843 77 238 4.3 6.1 0.00 0.00 0.00 57 1012.5
20260831000342 78 237 4.3 6.1 0.00 0.00 0.00 51 1012.4
20260830235841 79 232 4.3 6.1 0.00 0.00 0.00 51 1012.5
20260830235342 79 226 4.3 6.1 0.00 0.00 0.00 53 1012.5
20260830234840 79 203 3.5 5.2 0.00 0.00 0.00 57 1012.5
20260830234340 79 238 3.5 5.2 0.00 0.00 0.00 55 1012.5
20260830233839 78 225 3.5 6.1 0.00 0.00 0.00 58 1012.6
20260830233340 78 242 4.3 6.1 0.00 0.00 0.00 60 1012.5
20260830232840 77 247 4.3 6.1 0.00 0.00 0.00 61 1012.6
20260830232343 77 242 4.3 6.1 0.00 0.00 0.00 62 1012.6
20260830232339 78 219 3.5 6.1 0.00 0.00 0.00 60 1012.6
20260830231340 80 232 3.5 5.2 0.00 0.00 0.00 59 1012.7
20260830231336 79 236 3.5 5.2 0.00 0.00 0.00 60 1012.7
20260830230334 80 227 2.6 5.2 0.00 0.00 0.00 57 1012.7
20260830225834 80 236 2.6 5.2 0.00 0.00 0.00 59 1012.8
20260830225332 79 214 2.6 4.3 0.00 0.00 0.00 60 1012.8
20260830224831 79 227 2.6 5.2 0.00 0.00 0.00 60 1012.8
20260830224331 80 227 2.6 5.2 0.00 0.00 0.00 56 1012.9
20260830223832 80 221 3.5 6.1 0.00 0.00 0.00 52 1012.9
20260830223335 80 220 3.5 6.1 0.00 0.00 0.00 56 1013.1
20260830223331 80 234 3.5 6.1 0.00 0.00 0.00 59 1013.0
20260830222336 80 212 3.5 7.8 0.00 0.00 0.00 61 1013.4
20260830222332 80 242 3.5 6.1 0.00 0.00 0.00 56 1013.2
20260830221938 80 186 3.5 7.8 0.00 0.00 0.00 54 1013.4
20260830220832 79 214 3.5 7.8 0.00 0.00 0.00 59 1013.4
20260830220332 79 193 3.5 7.8 0.00 0.00 0.00 60 1013.4
20260830215831 79 192 3.5 7.0 0.00 0.00 0.00 61 1013.6
20260830215332 78 219 4.3 7.0 0.00 0.00 0.00 62 1013.5
20260830214831 78 178 5.2 7.8 0.00 0.00 0.00 62 1013.6
20260830214331 79 202 5.2 8.7 0.00 0.00 0.00 60 1013.7
20260830213832 80 201 5.2 9.6 0.00 0.00 0.00 61 1013.8
20260830213332 80 176 5.2 9.6 0.00 0.00 0.00 59 1013.8
20260830212831 79 183 5.2 10.4 0.00 0.00 0.00 59 1013.9
20260830212331 79 209 5.2 10.4 0.00 0.00 0.00 61 1013.9
20260830211832 79 159 5.2 8.7 0.00 0.00 0.00 59 1013.8
20260830211332 79 146 4.3 8.7 0.00 0.00 0.00 62 1013.9
20260830210832 78 180 4.3 7.8 0.00 0.00 0.00 65 1014.0
20260830210332 78 203 3.5 7.8 0.00 0.00 0.00 61 1014.1
20260830205832 78 182 4.3 8.7 0.00 0.00 0.00 64 1014.1
20260830205332 78 190 4.3 8.7 0.00 0.00 0.00 60 1014.1
20260830204831 78 186 5.2 8.7 0.00 0.00 0.00 65 1014.1
20260830204335 78 165 6.1 10.4 0.00 0.00 0.00 62 1014.2
20260830204331 78 190 6.1 10.4 0.00 0.00 0.00 62 1014.2
20260830203938 80 169 4.3 9.6 0.00 0.00 0.00 60 1014.2
20260830202831 80 172 3.5 6.1 0.00 0.00 0.00 63 1014.2
20260830202335 80 209 4.3 8.7 0.00 0.00 0.00 61 1014.3
20260830202331 80 196 3.5 7.8 0.00 0.00 0.00 61 1014.3
20260830201938 79 160 4.3 8.7 0.00 0.00 0.00 59 1014.3
20260830200830 79 158 3.5 7.8 0.00 0.00 0.00 60 1014.3
20260830200329 79 202 4.3 7.8 0.00 0.00 0.00 62 1014.3
20260830195830 79 185 4.3 7.8 0.00 0.00 0.00 63 1014.3
20260830195333 79 171 4.3 9.6 0.00 0.00 0.00 63 1014.3
20260830195329 79 174 4.3 7.8 0.00 0.00 0.00 62 1014.3
20260830194937 78 132 4.3 9.6 0.00 0.00 0.00 61 1014.4
20260830194438 77 212 4.3 9.6 0.00 0.00 0.00 59 1014.4
20260830193329 77 150 5.2 9.6 0.00 0.00 0.00 67 1014.4
20260830192831 78 198 5.2 9.6 0.00 0.00 0.00 63 1014.4
20260830192331 78 170 4.3 8.7 0.00 0.00 0.00 63 1014.4
20260830191830 79 177 3.5 7.0 0.00 0.00 0.00 66 1014.5
20260830191329 79 184 3.5 7.8 0.00 0.00 0.00 64 1014.5
20260830190829 78 176 4.3 7.8 0.00 0.00 0.00 63 1014.5
20260830190329 78 147 4.3 7.8 0.00 0.00 0.00 65 1014.5
20260830185829 78 155 4.3 9.6 0.00 0.00 0.00 64 1014.5
20260830185329 78 122 3.5 9.6 0.00 0.00 0.00 63 1014.5
20260830184834 78 146 3.5 9.6 0.00 0.00 0.00 64 1014.5
20260830184830 78 126 3.5 9.6 0.00 0.00 0.00 62 1014.5
20260830183829 78 104 3.5 7.8 0.00 0.00 0.00 67 1014.5
20260830183327 78 131 3.5 9.6 0.00 0.00 0.00 66 1014.5
20260830182827 78 98 3.5 9.6 0.00 0.00 0.00 64 1014.5
20260830182327 78 148 3.5 7.8 0.00 0.00 0.00 66 1014.6
20260830181827 78 132 3.5 7.8 0.00 0.00 0.00 67 1014.5
20260830181326 77 126 4.3 7.8 0.00 0.00 0.00 69 1014.5
20260830180827 77 144 4.3 7.8 0.00 0.00 0.00 64 1014.5
20260830180327 77 127 3.5 7.8 0.00 0.00 0.00 67 1014.5
20260830175827 77 117 4.3 8.7 0.00 0.00 0.00 68 1014.5
20260830175327 77 109 5.2 9.6 0.00 0.00 0.00 67 1014.5
20260830174826 77 133 5.2 9.6 0.00 0.00 0.00 69 1014.4
20260830174325 76 121 4.3 8.7 0.00 0.00 0.00 70 1014.4
20260830173829 76 90 4.3 9.6 0.00 0.00 0.00 69 1014.4
20260830173824 76 88 4.3 9.6 0.00 0.00 0.00 70 1014.3
20260830172825 76 110 4.3 8.7 0.00 0.00 0.00 70 1014.3
20260830172325 77 129 3.5 8.7 0.00 0.00 0.00 69 1014.3
20260830171825 77 133 4.3 8.7 0.00 0.00 0.00 70 1014.3
20260830171325 78 142 4.3 8.7 0.00 0.00 0.00 68 1014.2
20260830170824 78 131 5.2 10.4 0.00 0.00 0.00 67 1014.2
20260830170325 78 121 6.1 10.4 0.00 0.00 0.00 62 1014.2
20260830165824 78 80 4.3 8.7 0.00 0.00 0.00 62 1014.1
20260830165323 78 135 4.3 8.7 0.00 0.00 0.00 64 1014.1
20260830164823 78 127 4.3 8.7 0.00 0.00 0.00 65 1014.1
20260830164323 77 90 6.1 10.4 0.00 0.00 0.00 64 1014.1
20260830163822 76 103 8.7 12.2 0.00 0.00 0.00 63 1014.1
20260830163326 77 105 7.0 13.9 0.00 0.00 0.00 62 1014.0
20260830163322 76 89 8.7 13.9 0.00 0.00 0.00 63 1014.0
20260830162323 77 94 6.1 9.6 0.00 0.00 0.00 61 1014.1
20260830161823 77 86 5.2 9.6 0.00 0.00 0.00 60 1014.0
20260830161322 77 116 4.3 7.8 0.00 0.00 0.00 62 1014.1
20260830160822 77 99 3.5 7.8 0.00 0.00 0.00 62 1014.1
20260830160322 76 51 3.5 6.1 0.00 0.00 0.00 62 1014.0
20260830155819 76 53 3.5 6.1 0.00 0.00 0.00 66 1014.0
20260830155319 75 51 4.3 8.7 0.00 0.00 0.00 65 1014.0
20260830154821 74 58 3.5 8.7 0.00 0.00 0.00 67 1014.0
20260830154817 73 93 2.6 5.2 0.00 0.00 0.00 67 1014.0
20260830153816 73 55 3.5 7.8 0.00 0.00 0.00 68 1014.1
20260830153317 72 62 4.3 7.8 0.00 0.00 0.00 69 1013.9
20260830152816 72 47 5.2 8.7 0.00 0.00 0.00 69 1013.9
20260830152314 72 39 6.1 8.7 0.00 0.00 0.00 69 1013.9
20260830151815 72 49 6.1 8.7 0.00 0.00 0.00 69 1013.9
20260830151319 72 59 6.1 8.7 0.00 0.00 0.00 69 1014.0
20260830151315 72 49 7.0 8.7 0.00 0.00 0.00 71 1014.0
20260830150315 72 76 6.1 8.7 0.00 0.00 0.00 69 1014.1
20260830145815 72 58 6.1 8.7 0.00 0.00 0.00 68 1014.0
20260830145315 72 64 7.0 9.6 0.00 0.00 0.00 68 1013.9
20260830144815 73 40 7.0 10.4 0.00 0.00 0.00 66 1013.9
20260830144315 73 58 7.8 10.4 0.00 0.00 0.00 66 1013.8
20260830143814 72 72 7.8 10.4 0.00 0.00 0.00 66 1013.8
20260830143314 72 80 7.8 9.6 0.00 0.00 0.00 66 1013.8
20260830142814 72 84 7.0 9.6 0.00 0.00 0.00 67 1013.8
20260830142314 72 81 7.8 10.4 0.00 0.00 0.00 66 1013.9
20260830141814 72 99 8.7 10.4 0.00 0.00 0.00 66 1013.8
20260830141312 72 96 8.7 10.4 0.00 0.00 0.00 66 1013.7
20260830140813 72 91 7.8 9.6 0.00 0.00 0.00 65 1013.8
20260830140313 73 92 7.8 9.6 0.00 0.00 0.00 66 1013.7
20260830135812 73 93 8.7 10.4 0.00 0.00 0.00 62 1013.7
20260830135312 73 88 9.6 12.2 0.00 0.00 0.00 62 1013.6
20260830134812 73 88 10.4 13.0 0.00 0.00 0.00 61 1013.5
20260830134312 74 86 10.4 13.0 0.00 0.00 0.00 61 1013.4
20260830133815 74 84 9.6 11.3 0.00 0.00 0.00 61 1013.2
20260830133811 74 86 10.4 12.2 0.00 0.00 0.00 61 1013.5
20260830132810 74 80 8.7 10.4 0.00 0.00 0.00 60 1013.2
20260830132309 74 84 8.7 10.4 0.00 0.00 0.00 59 1013.2
20260830131809 74 74 7.8 10.4 0.00 0.00 0.00 59 1013.0
20260830131308 74 68 7.0 9.6 0.00 0.00 0.00 60 1013.1
20260830130806 74 70 7.0 9.6 0.00 0.00 0.00 58 1013.1
20260830130306 74 90 7.8 11.3 0.00 0.00 0.00 58 1013.0
20260830125806 75 84 8.7 11.3 0.00 0.00 0.00 58 1013.0
20260830125310 75 72 7.0 10.4 0.00 0.00 0.00 57 1012.9
20260830125306 75 78 8.7 10.4 0.00 0.00 0.00 57 1012.9
20260830124306 75 80 4.3 8.7 0.00 0.00 0.00 58 1012.9
20260830123806 75 69 3.5 7.0 0.00 0.00 0.00 57 1012.9
20260830123306 74 73 3.5 7.0 0.00 0.00 0.00 57 1012.9
20260830122807 74 59 3.5 9.6 0.00 0.00 0.00 59 1012.9
20260830122312 73 94 5.2 9.6 0.00 0.00 0.00 61 1012.9
20260830122308 73 58 2.6 9.6 0.00 0.00 0.00 60 1012.9
20260830121306 73 69 7.8 9.6 0.00 0.00 0.00 61 1012.9
20260830120806 73 86 8.7 9.6 0.00 0.00 0.00 60 1012.9
20260830120306 73 85 7.8 9.6 0.00 0.00 0.00 60 1012.9
20260830115806 73 89 7.0 8.7 0.00 0.00 0.00 60 1012.8
20260830115306 73 88 7.8 9.6 0.00 0.00 0.00 61 1012.9
20260830114804 73 86 8.7 9.6 0.00 0.00 0.00 62 1012.9
20260830114308 73 84 7.0 10.4 0.00 0.00 0.00 62 1012.9
20260830114304 73 90 7.8 10.4 0.00 0.00 0.00 62 1012.8
20260830113304 73 90 5.2 8.7 0.00 0.00 0.00 63 1012.8
20260830112809 73 64 3.5 7.8 0.00 0.00 0.00 63 1012.7
20260830112804 73 59 4.3 7.8 0.00 0.00 0.00 63 1012.8
20260830112411 73 56 3.5 4.3 0.00 0.00 0.00 60 1012.7
20260830111304 74 32 3.5 4.3 0.00 0.00 0.00 57 1012.6
20260830110802 75 65 3.5 4.3 0.00 0.00 0.00 56 1012.7
20260830110302 76 65 3.5 4.3 0.00 0.00 0.00 55 1012.7
20260830105803 76 65 3.5 4.3 0.00 0.00 0.00 55 1012.7
20260830105305 76 65 3.5 4.3 0.00 0.00 0.00 56 1012.8
20260830104802 76 65 2.6 4.3 0.00 0.00 0.00 56 1012.8
20260830104302 76 65 1.7 4.3 0.00 0.00 0.00 56 1012.8
20260830103802 76 90 0.0 2.6 0.00 0.00 0.00 55 1012.8
20260830103302 76 90 0.9 1.7 0.00 0.00 0.00 56 1012.8
20260830102802 76 90 0.9 2.6 0.00 0.00 0.00 55 1012.7
20260830102306 76 90 1.7 3.5 0.00 0.00 0.00 53 1012.7
20260830101802 76 90 1.7 3.5 0.00 0.00 0.00 53 1012.7
20260830101304 76 90 1.7 2.6 0.00 0.00 0.00 53 1012.8
20260830100802 76 90 1.7 2.6 0.00 0.00 0.00 54 1012.8
20260830100300 76 90 0.9 2.6 0.00 0.00 0.00 54 1012.7
20260830095800 76 90 0.9 2.6 0.00 0.00 0.00 53 1012.7
20260830095300 76 90 2.6 8.7 0.00 0.00 0.00 54 1012.7
20260830094758 76 90 4.3 8.7 0.00 0.00 0.00 53 1012.6
20260830094258 75 85 6.1 8.7 0.00 0.00 0.00 55 1012.7
20260830093758 75 87 7.8 8.7 0.00 0.00 0.00 56 1012.7
20260830093258 75 92 7.0 8.7 0.00 0.00 0.00 57 1012.7
20260830092758 75 71 5.2 8.7 0.00 0.00 0.00 57 1012.7
20260830092258 75 61 4.3 7.8 0.00 0.00 0.00 57 1012.7
20260830091757 76 46 3.5 7.0 0.00 0.00 0.00 56 1012.8
20260830091258 77 40 1.7 3.5 0.00 0.00 0.00 54 1012.8
20260830090803 78 80 0.9 5.2 0.00 0.00 0.00 53 1012.8
20260830090757 78 80 1.7 5.2 0.00 0.00 0.00 53 1012.8
20260830085757 78 80 0.9 5.2 0.00 0.00 0.00 53 1012.8
20260830085257 78 74 1.7 5.2 0.00 0.00 0.00 53 1012.7
20260830084758 78 108 0.9 4.3 0.00 0.00 0.00 53 1012.7
20260830084257 78 46 1.7 5.2 0.00 0.00 0.00 52 1012.7
20260830083803 79 79 4.3 6.1 0.00 0.00 0.00 48 1012.8
20260830083757 78 46 3.5 6.1 0.00 0.00 0.00 51 1012.8
20260830082757 79 103 3.5 6.1 0.00 0.00 0.00 48 1012.8
20260830082257 79 94 1.7 5.2 0.00 0.00 0.00 48 1012.8
20260830081803 80 62 4.3 7.8 0.00 0.00 0.00 47 1013.0
20260830081758 79 46 1.7 5.2 0.00 0.00 0.00 48 1012.9
20260830080758 80 61 6.1 7.8 0.00 0.00 0.00 47 1013.0
20260830080258 80 80 7.0 8.7 0.00 0.00 0.00 45 1012.9
20260830075758 80 83 6.1 8.7 0.00 0.00 0.00 45 1012.9
20260830075255 80 83 4.3 7.0 0.00 0.00 0.00 46 1013.0
20260830074755 80 73 5.2 7.0 0.00 0.00 0.00 45 1013.0
20260830074255 80 77 6.1 7.8 0.00 0.00 0.00 46 1013.1
20260830073756 80 77 6.1 7.8 0.00 0.00 0.00 44 1013.0
20260830073255 80 60 6.1 7.8 0.00 0.00 0.00 44 1013.0
20260830072754 80 57 5.2 6.1 0.00 0.00 0.00 44 1013.0
20260830072253 79 55 3.5 5.2 0.00 0.00 0.00 46 1013.0
20260830071753 79 21 2.6 8.7 0.00 0.00 0.00 48 1013.1
20260830071253 80 39 2.6 8.7 0.00 0.00 0.00 46 1013.0
20260830070754 80 63 5.2 8.7 0.00 0.00 0.00 46 1013.0
20260830070253 80 80 6.1 8.7 0.00 0.00 0.00 46 1013.0
20260830065751 80 66 5.2 7.8 0.00 0.00 0.00 46 1012.9
20260830065251 80 57 5.2 7.8 0.00 0.00 0.00 46 1012.9
20260830064751 80 48 4.3 7.0 0.00 0.00 0.00 46 1012.9
20260830064251 80 43 4.3 7.8 0.00 0.00 0.00 45 1012.9
20260830063751 80 63 5.2 7.8 0.00 0.00 0.00 46 1012.8
20260830063357 80 43 6.1 7.8 0.00 0.00 0.00 50 1012.9
20260830063252 80 40 6.1 7.8 0.00 0.00 0.00 50 1012.9
20260830063248 80 45 6.1 7.8 0.00 0.00 0.00 48 1012.8
20260830061749 80 43 5.2 7.8 0.00 0.00 0.00 51 1012.9
20260830061249 80 43 5.2 7.8 0.00 0.00 0.00 50 1012.8
20260830060749 80 49 5.2 6.1 0.00 0.00 0.00 50 1012.8
20260830060249 80 49 5.2 6.1 0.00 0.00 0.00 50 1012.9
20260830055749 80 40 5.2 6.1 0.00 0.00 0.00 50 1012.8
20260830055249 80 34 4.3 6.1 0.00 0.00 0.00 51 1012.8
20260830054749 79 20 3.5 6.1 0.00 0.00 0.00 52 1012.8
20260830054247 79 111 2.6 3.5 0.00 0.00 0.00 51 1012.8
20260830053747 79 111 2.6 3.5 0.00 0.00 0.00 51 1012.9
20260830053246 79 111 1.7 2.6 0.00 0.00 0.00 51 1012.9
20260830052752 79 111 1.7 3.5 0.00 0.00 0.00 52 1013.0
20260830052748 79 111 1.7 3.5 0.00 0.00 0.00 52 1012.9
20260830051752 79 111 3.5 5.2 0.00 0.00 0.00 55 1013.0
20260830051747 79 111 1.7 5.2 0.00 0.00 0.00 53 1012.9
20260830051247 79 111 2.6 5.2 0.00 0.00 0.00 54 1012.9
20260830050244 79 111 3.5 6.1 0.00 0.00 0.00 55 1013.1
20260830045744 79 111 3.5 6.1 0.00 0.00 0.00 55 1013.1
20260830045245 79 115 2.6 6.1 0.00 0.00 0.00 54 1013.1
20260830044745 79 132 0.9 6.1 0.00 0.00 0.00 54 1013.0
20260830044245 79 132 0.0 0.0 0.00 0.00 0.00 55 1013.1
20260830043745 80 153 0.0 0.0 0.00 0.00 0.00 54 1013.2
20260830043243 80 205 0.0 0.0 0.00 0.00 0.00 53 1013.1
20260830042743 80 205 0.0 0.0 0.00 0.00 0.00 52 1013.0
20260830042243 80 205 0.0 0.9 0.00 0.00 0.00 52 1013.1
20260830041743 80 205 0.9 1.7 0.00 0.00 0.00 50 1012.9
20260830041242 80 236 0.9 4.3 0.00 0.00 0.00 50 1012.9
20260830040742 81 205 1.7 4.3 0.00 0.00 0.00 51 1012.8
20260830040242 81 205 2.6 4.3 0.00 0.00 0.00 51 1012.8
20260830035742 81 205 3.5 4.3 0.00 0.00 0.00 51 1012.9
20260830035242 81 205 3.5 4.3 0.00 0.00 0.00 50 1012.9
20260830034742 81 205 3.5 4.3 0.00 0.00 0.00 50 1012.9
20260830034239 81 205 3.5 4.3 0.00 0.00 0.00 49 1012.8
20260830033738 82 205 3.5 4.3 0.00 0.00 0.00 49 1012.7
20260830033238 82 205 3.5 4.3 0.00 0.00 0.00 48 1012.7
20260830032738 82 205 3.5 4.3 0.00 0.00 0.00 48 1012.6
20260830032239 82 215 2.6 4.3 0.00 0.00 0.00 47 1012.6
20260830031739 82 215 2.6 4.3 0.00 0.00 0.00 47 1012.5
20260830031239 82 215 2.6 4.3 0.00 0.00 0.00 47 1012.5
20260830030739 82 215 2.6 4.3 0.00 0.00 0.00 46 1012.4
20260830030238 82 226 2.6 3.5 0.00 0.00 0.00 45 1012.5
20260830025739 82 241 1.7 3.5 0.00 0.00 0.00 45 1012.4
20260830025239 82 238 1.7 3.5 0.00 0.00 0.00 44 1012.5
20260830024739 83 252 1.7 4.3 0.00 0.00 0.00 45 1012.3
20260830024238 83 252 2.6 4.3 0.00 0.00 0.00 45 1012.3
20260830023738 82 242 2.6 7.8 0.00 0.00 0.00 45 1012.3
20260830023238 83 228 3.5 7.8 0.00 0.00 0.00 45 1012.3
20260830022737 83 252 4.3 7.8 0.00 0.00 0.00 46 1012.3
20260830022237 83 230 5.2 7.8 0.00 0.00 0.00 45 1012.3
20260830021742 82 276 3.5 7.8 0.00 0.00 0.00 48 1012.2
20260830021736 82 248 4.3 7.8 0.00 0.00 0.00 46 1012.3
20260830020743 83 263 7.0 8.7 0.00 0.00 0.00 50 1012.2
20260830020736 82 281 4.3 7.8 0.00 0.00 0.00 48 1012.3
20260830020237 82 250 5.2 8.7 0.00 0.00 0.00 48 1012.3
20260830015736 83 256 6.1 8.7 0.00 0.00 0.00 50 1012.3
20260830014738 84 277 5.2 8.7 0.00 0.00 0.00 50 1012.4
20260830014734 83 270 6.1 8.7 0.00 0.00 0.00 50 1012.4
20260830013732 84 236 4.3 8.7 0.00 0.00 0.00 48 1012.3
20260830013233 84 260 3.5 6.1 0.00 0.00 0.00 49 1012.4
20260830013229 85 250 3.5 7.0 0.00 0.00 0.00 47 1012.5
20260830012228 85 227 4.3 7.0 0.00 0.00 0.00 46 1012.3
20260830011729 85 217 5.2 7.8 0.00 0.00 0.00 40 1012.4
20260830011227 85 219 6.1 7.8 0.00 0.00 0.00 42 1012.3
20260830010727 85 230 6.1 7.8 0.00 0.00 0.00 40 1012.4
20260830010225 85 229 6.1 7.8 0.00 0.00 0.00 40 1012.5
20260830005724 84 234 6.1 7.8 0.00 0.00 0.00 41 1012.4